Regional Weather Roundup
Issued by NWS

Home | Current Version | Previous Version | Text Only | Print | Product List | Glossary On
Versions: 1 2 3 4 5 6 7 8 9 10 11 12 13 14 15 16 17 18 19 20 21 22 23 24 25 26 27 28 29 30 31 32 33 34 35 36 37 38 39 40 41 42 43 44 45 46 47 48 49 50
000
ASUS43 KTOP 231508
RWRKS

WEATHER ROUNDUP FOR KANSAS
NATIONAL WEATHER SERVICE GOODLAND KS
1000 AM CDT WED APR 23 2014

NOTE:  "FAIR" INDICATES FEW OR NO CLOUDS BELOW 12,000 FEET WITH NO
SIGNIFICANT WEATHER AND/OR OBSTRUCTIONS TO VISIBILITY.

KSZ001>006-013>018-027>032-041>047-231600-
NORTHWEST KANSAS

CITY           SKY/WX    TMP DP  RH WIND       PRES   REMARKS
GOODLAND       CLOUDY    65  44  46 S18       29.60F
HAYS           PTSUNNY  N/A N/A N/A S20G29    29.70F
HILL CITY      PTSUNNY   69  48  47 S29G36    29.63F
RUSSELL        PTSUNNY   67  46  47 S28G37    29.71F
$$

KSZ061>065-074>080-084>089-231600-
SOUTHWEST KANSAS

CITY           SKY/WX    TMP DP  RH WIND       PRES   REMARKS
DODGE CITY     MOSUNNY   69  48  47 S25G36    29.73F
ELKHART          N/A     68  43  40 S18         N/A
GARDEN CITY    MOSUNNY   69  46  43 S28G39    29.71F
GREAT BEND     MOSUNNY   66  46  48 S23G32    29.74F
LIBERAL        PTSUNNY   70  46  43 SE32G39   29.75F
PRATT          MOSUNNY   64  46  52 S21G30    29.79F
$$

KSZ066>073-081>083-090>101-231600-
SOUTHEAST KANSAS

CITY           SKY/WX    TMP DP  RH WIND       PRES   REMARKS
CHANUTE        PTSUNNY   62  39  42 SE14G23   29.93F
COFFEYVILLE    PTSUNNY   63  41  44 SE14      29.93F
HUTCHINSON     PTSUNNY   69  42  37 S21G28    29.82F
NEWTON         MOSUNNY   66  37  34 S22       29.88F
PARSONS        PTSUNNY   62  39  42 SE9G17    29.93F
WICHITA INTL   PTSUNNY   68  42  38 S20G29    29.85F
WICHITA JABRA  SUNNY     67  41  38 S21G28    29.85F
WICHITA MCCONL MOSUNNY   67  41  38 SE18G24   29.86F
$$

KSZ007>012-019>026-033>040-048>060-102>105-231600-
NORTHEAST KANSAS

CITY           SKY/WX    TMP DP  RH WIND       PRES   REMARKS
CONCORDIA      CLOUDY    58  41  53 SE23G32   29.79F
EMPORIA        PTSUNNY   63  39  41 SE14G22   29.91F
LAWRENCE       CLOUDY    59  37  44 SE16      29.96F
MANHATTAN      LGT RAIN  58  42  55 SE13      29.88F
OLATHE IND     CLOUDY    57  37  47 SE14      29.98S
OLATHE EXE     CLOUDY    55  36  48 SE10      29.98F
SALINA         CLOUDY    64  40  41 SE14      29.81F
TOPEKA BILLARD CLOUDY    59  37  44 SE12      29.95F
TOPEKA FORBES  CLOUDY    59  36  42 SE15G23   29.94F
$$



USA.gov is the U.S. government's official web portal to all federal, state and local government web resources and services.